{"data":{"norad_id":55346,"intl_designator":"2023-013R","name":"STARLINK-5631","alt_names":[],"object_type":"PAYLOAD","status":"ACTIVE","operator":null,"country":"US","launch_date":"2023-01-26","launch_site_code":"AFETR","launch_vehicle":null,"mission":null,"orbit_class":"UNKNOWN","rcs_meters":null,"size_class":null,"mass_kg":null,"dimensions":null,"purposes":["comms"],"wikipedia_slug":null,"has_3d_model":false,"image_url":null,"decayed_at":null,"tle_current":{"epoch":"2026-05-24T23:20:28.898880Z","epoch_age_seconds":81401,"freshness":"FRESH","line1":"1 55346U 23013R   26144.97255670  .00000090  00000+0  12801-4 0  9994","line2":"2 55346  43.0028 232.2772 0001908 270.3265  89.7368 15.27575692183349","mean_motion":15.27575692,"eccentricity":0.0001908,"inclination_deg":43.0028,"raan_deg":232.2772,"arg_perigee_deg":270.3265,"mean_anomaly_deg":89.7368,"bstar":1.2801e-5,"rev_number":18334,"period_min":94.26701456048,"perigee_km":481.75287900337,"apogee_km":484.37111254016,"semimajor_km":6861.1989957718,"source":"CELESTRAK","updated_at":"2026-05-25T13:38:17.762647Z"}}}